Regional Weather Roundup
Issued by NWS

Home | Current Version | Previous Version | Text Only | Print | Product List | Glossary Off
Versions: 1 2 3 4 5 6 7 8 9 10 11 12 13 14 15 16 17 18 19 20 21 22 23 24 25 26 27 28 29 30 31 32 33 34 35 36 37 38 39 40 41 42 43 44 45 46 47 48 49 50

000
ASUS43 KDMX 312204
RWRIA

WEATHER ROUNDUP FOR IOWA
NATIONAL WEATHER SERVICE DES MOINES IA
  ISSUED BY NWS QUAD CITIES IA IL
400 PM CST SAT JAN 31 2015

NOTE: "FAIR" INDICATES FEW OR NO CLOUDS BELOW 12,000 FEET WITH NO
SIGNIFICANT WEATHER AND/OR OBSTRUCTIONS TO VISIBILITY.

* - THESE STATIONS ARE NOT NWS STATIONS...THUS NOT UNDER NWS
QUALITY CONTROL.  THEY ALSO DO NOT REPORT WEATHER SUCH
AS PRECIPITATION OR FOG.

IAZ001>003-012>014-020>022-031>034-043>046-312300-
   NORTHWEST IOWA

CITY           SKY/WX    TMP DP  RH WIND       PRES   REMARKS
CARROLL *      LGT SNOW  32  32 100 E6        30.03F VSB 3/4 WCI  26
CHEROKEE *     LGT SNOW  30  30  99 NE10      30.04F VSB 1   WCI  21
DENNISON *     LGT SNOW  32  32 100 CALM      30.00F VSB 3/4
LE MARS *      LGT SNOW  30  30 100 E10G17    30.03F WCI  21
ORANGE CITY *  LGT SNOW  30  27  86 E13G18    30.02F VSB 1   WCI  20
SHELDON *      FOG       28  28 100 E21       30.03F VSB 1   WCI  15
SIOUX CITY     LGT RAIN  36  34  92 SE7       30.00F FOG     WCI  30
SPENCER        FOG       28  26  92 NE16      30.06F VSB 1   WCI  16
STORM LAKE *   SNOW      30  30 100 NE13      30.04F VSB 1/2 WCI  20
$$

IAZ055>058-069>071-079>083-090>094-312300-
   SOUTHWEST IOWA

CITY           SKY/WX    TMP DP  RH WIND       PRES   REMARKS
ATLANTIC *     LGT SNOW  34  34 100 S6        30.02F WCI  29
AUDUBON *      LGT SNOW  34  30  86 SE3       30.02F VSB 1
CLARINDA *     LGT SNOW  34  34 100 SE9G15    30.04F WCI  26
COUNCIL BLFS * LGT SNOW  34  34 100 SE13      29.98F WCI  25
CRESTON *      LGT SNOW  32  32 100 SE10      30.04F VSB 1   WCI  24
HARLAN *       LGT SNOW  34  34 100 S6        30.04F WCI  29
LAMONI         SNOW      33  32  96 S7        30.07F VSB 1/2 WCI  27
RED OAK *      LGT SNOW  34  34 100 S8G14     30.02F WCI  27
SHENANDOAH *   LGT SNOW  34  34 100 SE12      30.02F WCI  25
$$

IAZ047>049-059>061-072>074-084-312300-
   CENTRAL IOWA

CITY           SKY/WX    TMP DP  RH WIND       PRES   REMARKS
AMES           MIX PCPN  34  32  92 S3        30.08F FOG
ANKENY *       MIX PCPN  37  37 100 S6        30.08F WCI  33
BOONE *        LGT SNOW  34  34 100 CALM      30.05F
CHARITON *     CLOUDY    36  36 100 S6        30.08F FOG     WCI  31
DES MOINES     LGT RAIN  38  35  89 S9        30.08F WCI  31
GRINNELL *     LGT RAIN  37  35  95 S6        30.10F WCI  32
KNOXVILLE *    MIX PCPN  37  34  87 S8G15     30.08F WCI  31
MARSHALLTOWN   LGT RAIN  36  35  96 SW9       30.08F WCI  29
PERRY *        LGT RAIN  33  33 100 E5        30.06F WCI  29
$$

IAZ004>006-015-016-023>025-035-036-312300-
   NORTH CENTRAL IOWA

CITY           SKY/WX    TMP DP  RH WIND       PRES   REMARKS
ALGONA *       CLOUDY    32  32 100 NE10      30.08S FOG     WCI  24
CLARION *      SNOW      32  32 100 E3        30.07F VSB 1/4
ESTHERVILLE    MIX PCPN  27  27 100 NE13      30.07F FOG     WCI  16
FORT DODGE *   CLOUDY    32  30  93 CALM      30.07S VSB 1
MASON CITY     CLOUDY    31  28  89 NE9       30.10F FOG     WCI  23
WEBSTER CITY * LGT RAIN  34  34 100 S6        30.05F WCI  29
IOWA FALLS *   RAIN      35  34  95 SW6       30.09S WCI  30
$$

IAZ007>011-017>019-026>030-037>042-050>054-066-312300-
   NORTHEAST IOWA

CITY           SKY/WX    TMP DP  RH WIND       PRES   REMARKS
CEDAR RAPIDS   LGT RAIN  36  36 100 S5        30.11F FOG     WCI  32
CHARLES CITY * CLOUDY    32  28  86 NE7       30.11S WCI  26
CLINTON *      CLOUDY    36  32  87 SW8       30.17S WCI  29
DECORAH *      CLOUDY    32  25  74 E7        30.12R WCI  26
DUBUQUE        CLOUDY    35  30  82 SW3       30.12F
MONTICELLO *   FOG       36  36 100 SW3       30.12F VSB 1
OELWEIN *      CLOUDY    36  32  87 CALM      30.11S
WATERLOO       CLOUDY    35  35 100 CALM      30.10F FOG
$$

IAZ064-065-067-068-078-312300-
   EAST CENTRAL IOWA

CITY           SKY/WX    TMP DP  RH WIND       PRES   REMARKS
DAVENPORT      LGT RAIN  35  32  88 SW7       30.16R FOG     WCI  29
IOWA CITY      LGT RAIN  37  36  96 S3        30.15F FOG
MT. PLEASANT * LGT RAIN  35  35 100 S7        30.16F WCI  30
MUSCATINE *    MIX PCPN  36  34  93 S6        30.17S WCI  31
QUAD CITIES    CLOUDY    36  34  92 SW6       30.16S FOG     WCI  31
$$

IAZ062-063-075>077-085>089-095>099-312300-
   SOUTHEAST IOWA

CITY           SKY/WX    TMP DP  RH WIND       PRES   REMARKS
BURLINGTON     MIX PCPN  35  35 100 S6        30.17S FOG     WCI  30
FAIRFIELD *    MIX PCPN  37  36  93 SW5       30.14F WCI  34
FORT MADISON * DRIZZLE   36  36 100 S5        30.17F WCI  32
KEOKUK *       CLOUDY    36  34  93 S6        30.16F FOG     WCI  31
OTTUMWA        LGT RAIN  37  37 100 SW9       30.12F WCI  30
WASHINGTON *   MIX PCPN  36  36 100 S8        30.14F WCI  29
$$

ABBREVIATIONS USED IN REMARKS
   TC - TEMPERATURES IN CELSIUS
  WCI - WIND CHILL INDEX
   HX - HEAT INDEX
  VSB - VISIBILITY
$$


USA.gov is the U.S. government's official web portal to all federal, state and local government web resources and services.